COSMO-SKYMED 1

Last updated on Wed Jul 16 2025 00:02:15 GMT+0000 (Coordinated Universal Time)

1 31598U 07023A 25196.39710812 .00000929 00000+0 92275-4 0 9990 2 31598 97.8863 20.9436 0001860 89.4797 270.6636 14.94167010979437
UTC large
Height (km)
Speed (km/s)
/
Latitude / Longitude
Inclination (degrees)
Orbital Period (minutes)
Azimuth
Elevation
Range (km)
Doppler Factor

Next 0 passes for location: London (51.5072 / 0.1276)

Sorry there are no passes over London.